Retour au catalogue

DELTA 1 DEB

ActifUNKNOWN
NORAD 10762·DEBRIS·🇺🇸 United States

Lancé Jul 29, 1976 depuis Vandenberg Space Force Base

Loading…

Prochains Passages (prochaines 24 heures)

TLE

FraisSource: Space-Track

Époque: Sep 14, 2026, 10:12 UTC

1 10762U 76077BK  26257.42525540 -.00000591  00000-0 -54687-2 0  9991
2 10762 102.6433 326.5490 0673250 176.0189 184.6572 11.70146932605144

Suivez DELTA 1 DEB en temps réel avec AllMySat

Download on the App Store